SCP
0 0 -0 -0 0 0 0 0 0 0 0 0 0 0 0 0 0 0 0 0 0 0 0 0 0 0 0 0 0 0 0 0 0 0 0 0 0 0 0 0 0 0 0 0
0 0 0 0 -0 -0 0 0 0 0 0 0 0 0 0 0 0 0 0 0 0 0 0 0 0 0 0 0 0 0 0 0 0 0 0 0 0 0 0 0 0 0 0 0
0 0 0 0 0 0 0 0 0 0 0 0 0 0 0 0 0 0 0 0 0 0 0 0 0 0 0 0 0 0 0 0 0 0 0 0 0 0 0 0 0 0 0 0
0 0 0 0 0 0 0 0 0 0 0 0 0 0 0 0 0 0 0 0 0 0 0 0 0 0 0 0 0 0 0 0 0 0 0 0 0 0 0 0 0 0 0 0
0 0 0 0 0 0 0 -0 -0 -0 0 0 0 0 0 0 0 0 0 0 0 0 0 0 0 0 0 0 0 0 0 0 0 0 0 0 0 0 0 0 0 0 0 0
0 0 0 0 0 0 0 0 0 0 0 0 0 0 0 0 0 0 0 0 0 0 0 0 0 0 0 0 0 0 0 0 0 0 0 0 0 0 0 0 0 0 0 0
0 0 0 0 0 0 0 0 0 0 0 0 0 0 0 0 0 0 0 0 0 0 0 0 0 0 0 0 0 0 0 0 0 0 0 0 0 0 0 0 0 0 0 0
0 0 0 0 0 0 0 0 0 0 0 0 0 0 0 0 0 0 0 0 0 0 0 0 0 0 0 0 0 0 0 0 0 0 0 0 0 0 0 0 0 0 0 0
0 0 0 0 0 0 0 0 0 0 0 0 0 0 0 0 0 0 0 0 0 0 0 0 0 0 0 0 0 0 0 0 0 0 0 0 0 0 0 0 0 0 0 0
0 0 0 0 0 0 0 0 0 0 0 0 0 0 0 0 0 0 0 0 0 0 0 0 0 0 0 0 0 0 0 0 0 0 0 0 0 0 0 0 0 0 0 0
0 0 0 0 0 0 0 0 0 0 0 0 0 0 0 0 0 0 0 0 0 0 0 0 0 0 0 0 0 0 0 0 0 0 0 0 0 0 0 0 0 0 0 0
0 0 0 0 -0 -0 0 0 0 0 0 0 0 0 0 0 0 0 0 0 0 0 0 0 0 0 0 0 0 0 0 0 0 0 0 0 0 0 0 0 0 0 0 0
0 0 0 0 0 0 0 0 0 0 0 0 0 0 0 0 0 0 0 0 0 0 0 0 0 0 0 0 0 0 0 0 0 0 0 0 0 0 0 0 0 0 0 0
0 0 0 0 0 0 0 0 0 0 0 0 0 0 0 0 0 0 0 0 0 0 0 0 0 0 0 0 0 0 0 0 0 0 0 0 0 0 0 0 0 0 0 0
0 0 0 0 0 0 0 0 0 0 0 0 0 0 0 0 0 0 0 0 0 0 0 0 0 0 0 0 0 0 0 0 0 0 0 0 0 0 0 0 0 0 0 0
0 0 0 0 0 0 0 0 0 0 0 0 0 0 0 0 0 0 0 0 0 0 0 0 0 0 0 0 0 0 0 0 0 0 0 0 0 0 0 0 0 0 0 0
0 0 0 0 0 0 0 0 0 0 0 0 0 0 0 0 0 0 0 0 0 0 0 0 0 0 0 0 0 0 0 0 0 0 0 0 0 0 0 0 0 0 0 0
0 0 0 0 0 0 0 0 0 0 0 0 0 0 0 0 0 0 0 0 0 0 0 0 0 0 0 0 0 0 0 0 0 0 0 0 0 0 0 0 0 0 0 0
0 0 0 0 0 0 0 0 0 0 0 0 0 0 0 0 0 0 0 0 0 0 0 0 0 0 0 0 0 0 0 0 0 0 0 0 0 0 0 0 0 0 0 0
0 0 0 0 0 0 0 0 0 0 0 0 0 0 0 0 0 0 0 0 0 0 0 0 0 0 0 0 0 0 0 0 0 0 0 0 0 0 0 0 0 0 0 0
0 0 0 0 0 0 0 0 0 0 0 0 0 0 0 0 0 0 0 0 0 0 0 0 0 0 0 0 0 0 0 0 0 0 0 0 0 0 0 0 0 0 0 0
0 0 0 0 0 0 0 0 0 0 0 0 0 0 0 0 0 0 0 0 0 0 0 0 0 0 0 0 0 0 0 0 0 0 0 0 0 0 0 0 0 0 0 0
0 0 0 0 0 0 0 0 0 0 0 0 0 0 0 0 0 0 0 0 0 0 0 0 0 0 0 0 0 0 0 0 0 0 0 0 0 0 0 0 0 0 0 -0
0 0 0 0 0 0 0 0 0 0 0 0 0 0 0 0 0 0 0 0 0 0 0 0 0 0 0 0 0 0 0 0 0 0 0 0 0 0 0 0 0 0 -0 0
0 0 0 0 0 0 0 0 0 0 0 0 0 0 0 0 0 0 0 0 0 0 0 0 0 0 0 0 0 0 0 0 0 0 0 0 0 0 0 0 0 -0 -0 0
0 0 0 0 0 0 0 0 0 0 0 0 0 0 0 0 0 0 0 0 0 0 0 0 0 0 0 0 0 0 0 0 0 0 0 0 0 0 0 0 -0 -0 0 0
0 0 0 0 0 0 0 0 0 0 0 0 0 0 0 0 0 0 0 0 0 0 0 0 0 0 0 0 0 0 0 0 0 0 0 0 0 0 0 -0 -0 0 0 0
Wind_Speed_500mb
6 7 31 34 39 39 38 36 23 24 30 20 12 17 19 33 42 45 46 45 43 40 36 33 31 28 25 25 23 17 13 13 19 26 30 29 28 31 37 42 47 48 51 50
6 3 11 27 36 41 45 45 42 38 32 11 3 9 21 31 41 44 43 42 40 37 35 34 32 30 28 27 23 17 13 16 23 28 29 28 31 37 42 46 48 49 50 49
6 10 10 19 38 38 39 43 40 42 36 30 12 17 23 26 34 36 36 36 36 35 34 33 32 30 28 25 22 15 13 18 24 28 29 31 36 40 43 46 49 50 50 51
4 10 11 3 4 34 42 38 40 40 31 10 18 17 15 13 21 22 21 25 27 29 31 31 30 28 27 25 19 13 13 19 24 28 30 34 38 41 45 48 50 52 55 56
6 12 19 24 7 10 31 37 39 36 32 12 27 34 18 15 19 21 20 20 23 26 29 30 32 32 27 21 15 12 16 20 25 30 33 37 40 45 50 52 56 58 58 59
2 7 8 10 4 1 13 18 10 31 27 30 39 17 13 23 21 22 21 21 23 26 29 27 28 26 21 17 12 15 19 23 29 33 37 39 45 50 52 54 58 58 59 59
4 9 13 10 11 11 11 5 6 10 28 39 23 10 45 33 25 20 18 17 19 21 24 25 24 22 18 13 14 16 21 27 31 34 38 42 49 52 56 58 59 55 57 56
13 6 15 15 11 8 6 12 15 24 31 32 37 36 34 30 25 21 18 19 20 23 23 21 21 18 15 13 15 19 27 28 31 36 40 47 54 60 60 55 53 55 54 53
14 9 6 6 6 4 11 23 26 33 33 39 38 32 29 28 22 18 16 17 18 19 19 18 16 13 11 16 18 24 25 29 33 38 43 48 55 56 56 48 51 53 52 53
6 7 3 11 4 6 22 25 30 34 36 32 35 29 27 22 17 14 12 14 16 16 16 15 14 12 13 18 22 22 26 30 35 42 49 52 48 46 49 49 51 51 55 58
2 5 6 9 11 23 30 34 37 33 28 27 29 25 20 16 12 10 11 13 14 15 17 15 13 15 19 18 18 22 28 34 41 45 49 50 45 48 49 48 46 55 60 63
6 24 8 20 34 34 37 37 34 32 30 25 19 18 13 8 7 9 12 15 17 19 18 18 15 16 15 15 20 26 33 39 43 47 47 44 50 59 48 45 46 48 50 51
5 28 9 36 37 34 37 35 30 25 21 22 17 11 6 6 8 11 13 16 18 18 17 16 15 14 13 17 23 30 37 42 43 44 42 45 50 52 61 61 48 45 47 48
25 36 28 35 25 34 38 35 30 26 23 18 11 5 4 6 8 10 13 16 19 17 18 16 13 12 16 21 28 34 39 41 41 40 47 49 47 52 51 55 61 60 53 51
23 15 21 34 42 39 38 35 31 26 19 12 6 4 4 5 7 10 14 17 19 18 17 13 12 16 20 26 31 36 39 40 42 49 51 46 47 49 50 52 54 58 60 60
27 26 36 47 48 44 40 34 27 22 14 8 4 3 5 7 9 10 12 17 17 16 16 14 15 20 25 29 34 38 40 44 47 49 51 46 45 47 50 50 54 55 57 58
47 35 44 50 50 45 34 27 21 16 10 5 5 5 6 7 10 14 17 18 19 17 16 17 20 24 27 33 38 42 45 47 46 46 44 45 47 47 49 52 52 55 58 57
26 31 44 53 50 40 33 25 17 11 8 6 6 7 8 9 10 14 16 16 17 17 19 21 23 26 32 37 41 46 49 50 49 46 45 44 45 49 48 49 51 54 58 62
30 46 41 43 40 36 29 22 16 11 7 6 6 7 9 10 12 14 14 15 17 16 22 22 26 32 35 39 44 49 49 46 42 43 43 44 45 46 46 47 51 54 57 61
46 46 46 44 35 28 26 20 14 9 6 5 5 6 8 11 14 16 17 17 17 21 23 26 30 33 38 43 48 49 44 39 42 43 45 44 44 44 47 46 48 54 58 57
52 51 46 39 34 28 22 16 11 7 5 5 6 9 11 13 15 16 16 12 22 20 24 28 33 37 41 47 49 45 40 41 44 43 43 43 43 45 49 51 54 56 56 58
53 46 39 33 28 23 18 13 10 7 6 7 9 10 11 12 13 14 15 16 22 23 27 32 36 41 46 46 46 40 41 44 44 44 44 43 48 54 51 54 54 54 56 58
46 38 32 27 23 21 17 11 7 6 8 8 9 9 11 11 11 11 12 17 21 26 30 35 40 41 43 44 41 41 42 42 43 45 47 52 53 51 52 53 53 54 56 55
35 30 27 25 21 17 12 9 8 8 8 9 9 9 9 9 10 12 15 20 24 29 33 35 37 40 41 41 40 41 43 45 47 49 52 48 52 54 53 52 53 53 54 52
28 25 22 20 18 15 12 10 9 9 9 9 10 10 9 8 11 13 17 22 27 30 32 35 37 39 40 42 43 45 47 49 49 51 53 55 58 56 52 52 54 54 51 51
24 21 20 20 18 16 14 12 12 12 13 13 12 9 7 8 10 15 20 24 27 30 33 36 39 41 43 45 48 49 49 51 54 55 56 57 55 53 54 54 53 52 50 48
22 20 21 21 19 17 15 15 15 16 16 13 9 6 6 10 15 20 22 26 29 33 36 39 42 44 46 48 49 49 52 55 56 56 55 55 54 53 53 52 50 46 44 42
Wind_Direction_500mb
222 90 171 185 197 212 222 234 234 233 228 236 207 170 172 166 173 179 184 186 187 187 188 189 188 187 185 198 209 222 250 297 320 326 330 329 329 328 325 324 323 322 319 316
223 252 227 209 210 214 221 229 235 246 247 263 28 142 169 180 181 186 190 190 192 191 191 192 191 189 193 203 213 230 271 308 324 329 330 329 328 326 324 325 325 320 315 309
172 182 201 248 230 218 224 232 235 236 239 239 184 185 198 193 187 193 194 195 194 195 194 193 191 188 195 202 217 241 284 316 326 328 328 327 326 325 327 324 319 314 311 310
113 164 224 15 4 231 223 235 232 243 243 304 182 187 166 172 184 179 180 182 185 186 184 183 182 181 185 205 221 254 298 317 325 327 326 324 326 327 323 319 315 314 313 312
218 212 288 284 214 195 203 238 238 237 234 178 119 120 108 108 127 132 135 144 157 167 173 174 181 188 198 207 234 274 303 318 326 323 323 325 327 323 322 318 318 318 316 312
171 243 249 61 117 195 181 261 253 217 214 160 160 184 147 140 130 128 134 143 153 164 172 176 178 189 197 218 252 289 307 324 321 320 323 324 324 322 320 319 319 316 312 310
199 256 286 76 130 147 199 32 35 166 166 164 176 79 135 140 131 135 136 144 154 158 158 171 181 187 203 239 275 299 322 321 317 320 322 323 321 322 322 320 317 312 310 312
201 199 258 135 121 225 83 102 125 132 147 137 122 120 123 131 132 132 135 141 146 152 165 177 185 202 228 258 291 315 316 312 317 323 323 322 323 324 321 319 314 313 313 312
208 204 95 145 33 19 157 140 135 133 132 131 128 128 131 132 136 141 147 153 158 168 176 187 199 220 255 288 307 310 310 318 321 322 323 322 320 320 318 314 312 310 312 312
177 156 144 185 111 137 146 140 137 133 130 130 128 131 131 135 140 151 164 171 177 182 187 205 220 245 271 292 297 305 315 319 322 323 322 322 318 313 309 308 308 308 309 313
178 170 139 194 170 152 137 136 131 126 124 128 133 130 135 138 152 176 193 200 199 193 196 220 240 260 271 285 302 314 318 323 322 320 319 318 314 311 306 305 302 305 310 311
228 172 183 171 165 157 145 141 142 141 134 131 137 143 151 160 198 215 219 219 207 208 215 228 247 265 276 296 311 316 318 320 320 318 317 313 310 313 313 308 309 307 306 309
107 148 104 146 151 152 143 143 140 144 147 148 149 157 178 222 232 228 224 218 212 213 224 245 250 256 284 303 310 313 317 318 316 316 315 311 313 313 313 317 314 314 314 314
137 125 116 150 156 151 154 150 153 151 153 157 163 185 222 232 244 223 216 210 208 222 235 237 241 270 292 301 308 314 316 316 316 312 313 314 310 311 312 313 316 319 320 320
153 164 166 152 150 149 159 158 155 154 157 159 173 212 241 219 215 221 230 223 223 225 227 235 257 277 293 302 309 314 316 316 314 316 320 315 313 310 311 313 314 316 319 321
151 144 149 156 158 158 158 155 158 158 163 172 192 223 244 236 229 240 230 217 215 222 234 251 274 286 297 307 314 317 318 318 318 319 317 316 313 311 312 314 315 315 318 320
143 140 158 157 158 156 155 153 161 166 172 195 224 245 255 244 239 234 223 218 221 234 252 268 278 291 305 311 314 319 321 319 317 314 313 312 313 312 312 312 314 315 315 319
188 181 168 165 157 154 156 159 160 165 178 201 223 238 244 239 229 230 229 229 237 250 265 275 287 301 308 312 317 320 320 318 314 313 315 311 310 309 312 311 313 315 315 318
165 151 152 155 156 157 156 156 159 165 180 212 235 241 235 232 232 244 249 245 251 263 271 284 297 304 310 316 320 320 318 315 313 310 308 309 310 309 311 313 312 314 316 316
149 150 151 149 148 152 152 153 156 168 189 215 227 243 256 262 261 257 248 242 241 250 280 292 303 310 316 319 319 319 320 312 307 307 309 310 309 310 311 313 313 311 315 320
147 147 146 146 147 148 151 155 164 173 189 218 245 256 257 257 248 238 234 240 261 275 290 302 310 315 318 317 317 318 314 308 307 309 309 310 310 310 311 312 311 317 318 321
145 145 147 149 152 156 164 171 181 198 226 249 259 256 249 240 232 231 242 245 281 296 305 312 315 315 315 316 319 316 310 311 313 314 313 311 311 315 314 316 317 319 318 319
149 152 155 160 167 171 171 177 197 233 253 255 245 230 218 222 228 238 267 285 296 306 310 312 312 314 317 320 320 315 316 318 317 317 313 313 315 316 315 314 315 316 320 320
155 160 165 168 171 175 185 199 222 235 231 219 214 210 211 228 250 270 285 297 304 307 311 315 317 320 323 323 322 322 321 319 316 314 316 315 314 312 314 316 316 317 318 320
159 162 169 177 183 190 198 207 213 206 201 199 201 208 221 243 272 295 300 305 310 316 321 324 324 325 326 327 326 323 322 321 318 316 314 314 316 316 316 315 315 315 317 319
163 172 176 182 188 192 194 195 196 193 195 198 202 215 246 273 293 304 311 317 323 326 326 327 329 329 329 329 327 326 322 319 318 318 316 316 317 315 314 315 316 316 318 319
175 178 179 180 181 184 188 191 190 188 192 199 218 239 277 303 315 320 324 326 328 329 329 330 331 331 330 328 328 327 323 323 322 320 320 318 318 319 317 317 316 317 316 320
Wind_Speed_850mb
6 7 31 34 39 39 38 36 23 24 30 20 12 17 19 33 42 45 46 45 43 40 36 33 31 28 25 25 23 17 13 13 19 26 30 29 28 31 37 42 47 48 51 50
6 3 11 27 36 41 45 45 42 38 32 11 3 9 21 31 41 44 43 42 40 37 35 34 32 30 28 27 23 17 13 16 23 28 29 28 31 37 42 46 48 49 50 49
6 10 10 19 38 38 39 43 40 42 36 30 12 17 23 26 34 36 36 36 36 35 34 33 32 30 28 25 22 15 13 18 24 28 29 31 36 40 43 46 49 50 50 51
4 10 11 3 4 34 42 38 40 40 31 10 18 17 15 13 21 22 21 25 27 29 31 31 30 28 27 25 19 13 13 19 24 28 30 34 38 41 45 48 50 52 55 56
6 12 19 24 7 10 31 37 39 36 32 12 27 34 18 15 19 21 20 20 23 26 29 30 32 32 27 21 15 12 16 20 25 30 33 37 40 45 50 52 56 58 58 59
2 7 8 10 4 1 13 18 10 31 27 30 39 17 13 23 21 22 21 21 23 26 29 27 28 26 21 17 12 15 19 23 29 33 37 39 45 50 52 54 58 58 59 59
4 9 13 10 11 11 11 5 6 10 28 39 23 10 45 33 25 20 18 17 19 21 24 25 24 22 18 13 14 16 21 27 31 34 38 42 49 52 56 58 59 55 57 56
13 6 15 15 11 8 6 12 15 24 31 32 37 36 34 30 25 21 18 19 20 23 23 21 21 18 15 13 15 19 27 28 31 36 40 47 54 60 60 55 53 55 54 53
14 9 6 6 6 4 11 23 26 33 33 39 38 32 29 28 22 18 16 17 18 19 19 18 16 13 11 16 18 24 25 29 33 38 43 48 55 56 56 48 51 53 52 53
6 7 3 11 4 6 22 25 30 34 36 32 35 29 27 22 17 14 12 14 16 16 16 15 14 12 13 18 22 22 26 30 35 42 49 52 48 46 49 49 51 51 55 58
2 5 6 9 11 23 30 34 37 33 28 27 29 25 20 16 12 10 11 13 14 15 17 15 13 15 19 18 18 22 28 34 41 45 49 50 45 48 49 48 46 55 60 63
6 24 8 20 34 34 37 37 34 32 30 25 19 18 13 8 7 9 12 15 17 19 18 18 15 16 15 15 20 26 33 39 43 47 47 44 50 59 48 45 46 48 50 51
5 28 9 36 37 34 37 35 30 25 21 22 17 11 6 6 8 11 13 16 18 18 17 16 15 14 13 17 23 30 37 42 43 44 42 45 50 52 61 61 48 45 47 48
25 36 28 35 25 34 38 35 30 26 23 18 11 5 4 6 8 10 13 16 19 17 18 16 13 12 16 21 28 34 39 41 41 40 47 49 47 52 51 55 61 60 53 51
23 15 21 34 42 39 38 35 31 26 19 12 6 4 4 5 7 10 14 17 19 18 17 13 12 16 20 26 31 36 39 40 42 49 51 46 47 49 50 52 54 58 60 60
27 26 36 47 48 44 40 34 27 22 14 8 4 3 5 7 9 10 12 17 17 16 16 14 15 20 25 29 34 38 40 44 47 49 51 46 45 47 50 50 54 55 57 58
47 35 44 50 50 45 34 27 21 16 10 5 5 5 6 7 10 14 17 18 19 17 16 17 20 24 27 33 38 42 45 47 46 46 44 45 47 47 49 52 52 55 58 57
26 31 44 53 50 40 33 25 17 11 8 6 6 7 8 9 10 14 16 16 17 17 19 21 23 26 32 37 41 46 49 50 49 46 45 44 45 49 48 49 51 54 58 62
30 46 41 43 40 36 29 22 16 11 7 6 6 7 9 10 12 14 14 15 17 16 22 22 26 32 35 39 44 49 49 46 42 43 43 44 45 46 46 47 51 54 57 61
46 46 46 44 35 28 26 20 14 9 6 5 5 6 8 11 14 16 17 17 17 21 23 26 30 33 38 43 48 49 44 39 42 43 45 44 44 44 47 46 48 54 58 57
52 51 46 39 34 28 22 16 11 7 5 5 6 9 11 13 15 16 16 12 22 20 24 28 33 37 41 47 49 45 40 41 44 43 43 43 43 45 49 51 54 56 56 58
53 46 39 33 28 23 18 13 10 7 6 7 9 10 11 12 13 14 15 16 22 23 27 32 36 41 46 46 46 40 41 44 44 44 44 43 48 54 51 54 54 54 56 58
46 38 32 27 23 21 17 11 7 6 8 8 9 9 11 11 11 11 12 17 21 26 30 35 40 41 43 44 41 41 42 42 43 45 47 52 53 51 52 53 53 54 56 55
35 30 27 25 21 17 12 9 8 8 8 9 9 9 9 9 10 12 15 20 24 29 33 35 37 40 41 41 40 41 43 45 47 49 52 48 52 54 53 52 53 53 54 52
28 25 22 20 18 15 12 10 9 9 9 9 10 10 9 8 11 13 17 22 27 30 32 35 37 39 40 42 43 45 47 49 49 51 53 55 58 56 52 52 54 54 51 51
24 21 20 20 18 16 14 12 12 12 13 13 12 9 7 8 10 15 20 24 27 30 33 36 39 41 43 45 48 49 49 51 54 55 56 57 55 53 54 54 53 52 50 48
22 20 21 21 19 17 15 15 15 16 16 13 9 6 6 10 15 20 22 26 29 33 36 39 42 44 46 48 49 49 52 55 56 56 55 55 54 53 53 52 50 46 44 42
Wind_Direction_850mb
222 90 171 185 197 212 222 234 234 233 228 236 207 170 172 166 173 179 184 186 187 187 188 189 188 187 185 198 209 222 250 297 320 326 330 329 329 328 325 324 323 322 319 316
223 252 227 209 210 214 221 229 235 246 247 263 28 142 169 180 181 186 190 190 192 191 191 192 191 189 193 203 213 230 271 308 324 329 330 329 328 326 324 325 325 320 315 309
172 182 201 248 230 218 224 232 235 236 239 239 184 185 198 193 187 193 194 195 194 195 194 193 191 188 195 202 217 241 284 316 326 328 328 327 326 325 327 324 319 314 311 310
113 164 224 15 4 231 223 235 232 243 243 304 182 187 166 172 184 179 180 182 185 186 184 183 182 181 185 205 221 254 298 317 325 327 326 324 326 327 323 319 315 314 313 312
218 212 288 284 214 195 203 238 238 237 234 178 119 120 108 108 127 132 135 144 157 167 173 174 181 188 198 207 234 274 303 318 326 323 323 325 327 323 322 318 318 318 316 312
171 243 249 61 117 195 181 261 253 217 214 160 160 184 147 140 130 128 134 143 153 164 172 176 178 189 197 218 252 289 307 324 321 320 323 324 324 322 320 319 319 316 312 310
199 256 286 76 130 147 199 32 35 166 166 164 176 79 135 140 131 135 136 144 154 158 158 171 181 187 203 239 275 299 322 321 317 320 322 323 321 322 322 320 317 312 310 312
201 199 258 135 121 225 83 102 125 132 147 137 122 120 123 131 132 132 135 141 146 152 165 177 185 202 228 258 291 315 316 312 317 323 323 322 323 324 321 319 314 313 313 312
208 204 95 145 33 19 157 140 135 133 132 131 128 128 131 132 136 141 147 153 158 168 176 187 199 220 255 288 307 310 310 318 321 322 323 322 320 320 318 314 312 310 312 312
177 156 144 185 111 137 146 140 137 133 130 130 128 131 131 135 140 151 164 171 177 182 187 205 220 245 271 292 297 305 315 319 322 323 322 322 318 313 309 308 308 308 309 313
178 170 139 194 170 152 137 136 131 126 124 128 133 130 135 138 152 176 193 200 199 193 196 220 240 260 271 285 302 314 318 323 322 320 319 318 314 311 306 305 302 305 310 311
228 172 183 171 165 157 145 141 142 141 134 131 137 143 151 160 198 215 219 219 207 208 215 228 247 265 276 296 311 316 318 320 320 318 317 313 310 313 313 308 309 307 306 309
107 148 104 146 151 152 143 143 140 144 147 148 149 157 178 222 232 228 224 218 212 213 224 245 250 256 284 303 310 313 317 318 316 316 315 311 313 313 313 317 314 314 314 314
137 125 116 150 156 151 154 150 153 151 153 157 163 185 222 232 244 223 216 210 208 222 235 237 241 270 292 301 308 314 316 316 316 312 313 314 310 311 312 313 316 319 320 320
153 164 166 152 150 149 159 158 155 154 157 159 173 212 241 219 215 221 230 223 223 225 227 235 257 277 293 302 309 314 316 316 314 316 320 315 313 310 311 313 314 316 319 321
151 144 149 156 158 158 158 155 158 158 163 172 192 223 244 236 229 240 230 217 215 222 234 251 274 286 297 307 314 317 318 318 318 319 317 316 313 311 312 314 315 315 318 320
143 140 158 157 158 156 155 153 161 166 172 195 224 245 255 244 239 234 223 218 221 234 252 268 278 291 305 311 314 319 321 319 317 314 313 312 313 312 312 312 314 315 315 319
188 181 168 165 157 154 156 159 160 165 178 201 223 238 244 239 229 230 229 229 237 250 265 275 287 301 308 312 317 320 320 318 314 313 315 311 310 309 312 311 313 315 315 318
165 151 152 155 156 157 156 156 159 165 180 212 235 241 235 232 232 244 249 245 251 263 271 284 297 304 310 316 320 320 318 315 313 310 308 309 310 309 311 313 312 314 316 316
149 150 151 149 148 152 152 153 156 168 189 215 227 243 256 262 261 257 248 242 241 250 280 292 303 310 316 319 319 319 320 312 307 307 309 310 309 310 311 313 313 311 315 320
147 147 146 146 147 148 151 155 164 173 189 218 245 256 257 257 248 238 234 240 261 275 290 302 310 315 318 317 317 318 314 308 307 309 309 310 310 310 311 312 311 317 318 321
145 145 147 149 152 156 164 171 181 198 226 249 259 256 249 240 232 231 242 245 281 296 305 312 315 315 315 316 319 316 310 311 313 314 313 311 311 315 314 316 317 319 318 319
149 152 155 160 167 171 171 177 197 233 253 255 245 230 218 222 228 238 267 285 296 306 310 312 312 314 317 320 320 315 316 318 317 317 313 313 315 316 315 314 315 316 320 320
155 160 165 168 171 175 185 199 222 235 231 219 214 210 211 228 250 270 285 297 304 307 311 315 317 320 323 323 322 322 321 319 316 314 316 315 314 312 314 316 316 317 318 320
159 162 169 177 183 190 198 207 213 206 201 199 201 208 221 243 272 295 300 305 310 316 321 324 324 325 326 327 326 323 322 321 318 316 314 314 316 316 316 315 315 315 317 319
163 172 176 182 188 192 194 195 196 193 195 198 202 215 246 273 293 304 311 317 323 326 326 327 329 329 329 329 327 326 322 319 318 318 316 316 317 315 314 315 316 316 318 319
175 178 179 180 181 184 188 191 190 188 192 199 218 239 277 303 315 320 324 326 328 329 329 330 331 331 330 328 328 327 323 323 322 320 320 318 318 319 317 317 316 317 316 320